This is the latest recevied weather packets stored in our database for station/object SP3WRO-2. If no packets are shown the sender has not sent any weather packets the latest 10 day(s).
| Time | Temp. | Humidity | Pressure | Rain* | Wind** | Luminosity | Snow |
|---|---|---|---|---|---|---|---|
| 1787877807 | 16.11° C | 67% | 1015.2 hPa | - | - | - | - |
| 1787876906 | 16.11° C | 68% | 1015.5 hPa | - | - | - | - |
| 1787876004 | 16.11° C | 68% | 1015.7 hPa | - | - | - | - |
| 1787875103 | 16.11° C | 66% | 1016.1 hPa | - | - | - | - |
| 1787874202 | 16.67° C | 65% | 1015.9 hPa | - | - | - | - |
| 1787873301 | 16.67° C | 63% | 1016 hPa | - | - | - | - |
| 1787872400 | 17.22° C | 62% | 1015.8 hPa | - | - | - | - |
| 1787871499 | 16.67° C | 65% | 1016 hPa | - | - | - | - |
| 1787870599 | 16.67° C | 64% | 1016.4 hPa | - | - | - | - |
| 1787869697 | 16.67° C | 63% | 1016.5 hPa | - | - | - | - |
| 1787868796 | 17.22° C | 64% | 1016.6 hPa | - | - | - | - |
| 1787867895 | 17.78° C | 63% | 1016.6 hPa | - | - | - | - |
| 1787866995 | 17.78° C | 62% | 1016.5 hPa | - | - | - | - |
| 1787866094 | 17.78° C | 62% | 1016.8 hPa | - | - | - | - |
| 1787865192 | 17.78° C | 62% | 1016.7 hPa | - | - | - | - |
| 1787864291 | 17.22° C | 64% | 1016.6 hPa | - | - | - | - |
| 1787863390 | 16.67° C | 66% | 1016.6 hPa | - | - | - | - |
| 1787862489 | 16.67° C | 67% | 1016.8 hPa | - | - | - | - |
| 1787861588 | 17.22° C | 66% | 1016.8 hPa | - | - | - | - |
| 1787860687 | 17.78° C | 61% | 1016.7 hPa | - | - | - | - |
| 1787859786 | 17.78° C | 61% | 1016.4 hPa | - | - | - | - |
| 1787858885 | 18.33° C | 61% | 1016.4 hPa | - | - | - | - |
| 1787857984 | 18.33° C | 59% | 1016.5 hPa | - | - | - | - |
| 1787857083 | 18.33° C | 61% | 1016.4 hPa | - | - | - | - |
| 1787856182 | 18.33° C | 59% | 1016.2 hPa | - | - | - | - |
* Rain since midnight (hover to see other rain measurements)
** Current wind speed in m/s (hover to see current wind gust speed)